• în România
  • Lista ţărilor
  • Pe 7 zile
  • Temperatura apei
  • Hartă satelitară
  • Meteo pe hartă
  • Widget-uri
  • user-avatar
    Intrare

    Meteo pe oră la Stirling

    Astăzi, 21 Aprilie, Sâmbătă

    Timp Temperatura Precipitaţii Vânt Presiune Umiditate
    00:00 +6°C° 0 mm 2 m/s 766 mmHg 92%
    01:00 +6°C° 0 mm 2 m/s 766 mmHg 92%
    02:00 +7°C° 0 mm 1 m/s 766 mmHg 92%
    03:00 +7°C° 0 mm 1 m/s 766 mmHg 93%
    04:00 +7°C° 0 mm 1 m/s 766 mmHg 92%
    05:00 +7°C° 0 mm 1 m/s 765 mmHg 92%
    06:00 +8°C° 0 mm 1 m/s 765 mmHg 89%
    07:00 +9°C° 0 mm 1 m/s 765 mmHg 84%
    08:00 +10°C° 0 mm 2 m/s 764 mmHg 78%
    09:00 +13°C° 0 mm 2 m/s 764 mmHg 72%
    10:00 +13°C° 0 mm 3 m/s 764 mmHg 68%
    11:00 +14°C° 0 mm 3 m/s 763 mmHg 64%
    12:00 +16°C° 0 mm 3 m/s 763 mmHg 60%
    13:00 +16°C° 0 mm 3 m/s 762 mmHg 58%
    14:00 +17°C° 0 mm 3 m/s 761 mmHg 57%
    15:00 +17°C° 0 mm 4 m/s 760 mmHg 55%
    16:00 +17°C° 0 mm 3 m/s 760 mmHg 58%
    17:00 +16°C° 0 mm 3 m/s 759 mmHg 62%
    18:00 +16°C° 0 mm 3 m/s 759 mmHg 65%
    19:00 +14°C° 0 mm 2 m/s 758 mmHg 71%
    20:00 +12°C° 0 mm 2 m/s 758 mmHg 78%
    21:00 +9°C° 0 mm 2 m/s 757 mmHg 84%
    22:00 +10°C° 0 mm 1 m/s 756 mmHg 86%
    23:00 +10°C° 0 mm 1 m/s 756 mmHg 87%

    Mâine, 22 Aprilie, Duminică

    Timp Temperatura Precipitaţii Vânt Presiune Umiditate
    00:00 +9°C° 0 mm 1 m/s 755 mmHg 89%
    01:00 +9°C° 0 mm 1 m/s 755 mmHg 89%
    02:00 +9°C° 0 mm 1 m/s 754 mmHg 88%
    03:00 +9°C° 0 mm 1 m/s 753 mmHg 88%
    04:00 +9°C° 0 mm 1 m/s 753 mmHg 87%
    05:00 +8°C° 0 mm 2 m/s 753 mmHg 86%
    06:00 +8°C° 0 mm 2 m/s 752 mmHg 84%
    07:00 +9°C° 0,1 mm 3 m/s 752 mmHg 83%
    08:00 +9°C° 0,1 mm 3 m/s 752 mmHg 82%
    09:00 +10°C° 0,1 mm 4 m/s 752 mmHg 81%
    10:00 +10°C° 0,4 mm 4 m/s 752 mmHg 83%
    11:00 +10°C° 0,4 mm 4 m/s 752 mmHg 85%
    12:00 +10°C° 0,4 mm 4 m/s 752 mmHg 87%
    13:00 +10°C° 0,1 mm 4 m/s 752 mmHg 84%
    14:00 +10°C° 0,1 mm 5 m/s 752 mmHg 80%
    15:00 +10°C° 0,1 mm 5 m/s 751 mmHg 76%
    16:00 +10°C° 0,2 mm 5 m/s 751 mmHg 79%
    17:00 +10°C° 0,2 mm 4 m/s 751 mmHg 82%
    18:00 +10°C° 0,2 mm 4 m/s 751 mmHg 85%
    19:00 +8°C° 0,1 mm 4 m/s 751 mmHg 87%
    20:00 +8°C° 0,1 mm 4 m/s 751 mmHg 89%
    21:00 +7°C° 0,1 mm 4 m/s 751 mmHg 91%
    22:00 +7°C° 0,1 mm 5 m/s 751 mmHg 91%
    23:00 +7°C° 0,1 mm 5 m/s 751 mmHg 91%

    Poimâine, 23 Aprilie, Luni

    Timp Temperatura Precipitaţii Vânt Presiune Umiditate
    00:00 +7°C° 0,1 mm 6 m/s 752 mmHg 91%
    01:00 +7°C° 0,1 mm 6 m/s 752 mmHg 89%
    02:00 +6°C° 0,1 mm 7 m/s 752 mmHg 88%
    03:00 +6°C° 0,1 mm 7 m/s 752 mmHg 87%
    04:00 +6°C° 0 mm 7 m/s 753 mmHg 87%
    05:00 +7°C° 0 mm 6 m/s 753 mmHg 87%
    06:00 +7°C° 0 mm 6 m/s 754 mmHg 87%
    07:00 +8°C° 0,1 mm 6 m/s 754 mmHg 83%
    08:00 +8°C° 0,1 mm 7 m/s 755 mmHg 80%
    09:00 +9°C° 0,1 mm 7 m/s 755 mmHg 77%
    10:00 +9°C° 0,1 mm 7 m/s 755 mmHg 75%
    11:00 +10°C° 0,1 mm 7 m/s 755 mmHg 73%
    12:00 +10°C° 0,1 mm 7 m/s 756 mmHg 71%
    13:00 +10°C° 0,2 mm 6 m/s 755 mmHg 76%
    14:00 +9°C° 0,2 mm 6 m/s 755 mmHg 81%
    15:00 +8°C° 0,2 mm 6 m/s 755 mmHg 85%
    16:00 +8°C° 0,2 mm 6 m/s 755 mmHg 86%
    17:00 +8°C° 0,2 mm 7 m/s 754 mmHg 86%
    18:00 +7°C° 0,2 mm 8 m/s 754 mmHg 86%
    19:00 +8°C° 0 mm 7 m/s 755 mmHg 85%
    20:00 +6°C° 0 mm 7 m/s 755 mmHg 85%
    21:00 +7°C° 0 mm 6 m/s 755 mmHg 84%
    22:00 +5°C° 0 mm 6 m/s 755 mmHg 84%
    23:00 +5°C° 0 mm 6 m/s 756 mmHg 85%

    24 Aprilie, Marţi

    Timp Temperatura Precipitaţii Vânt Presiune Umiditate
    00:00 +5°C° 0 mm 6 m/s 756 mmHg 86%
    01:00 +5°C° 0 mm 6 m/s 756 mmHg 87%
    02:00 +5°C° 0 mm 6 m/s 756 mmHg 88%
    03:00 +5°C° 0 mm 5 m/s 756 mmHg 89%
    04:00 +5°C° 0 mm 5 m/s 756 mmHg 90%
    05:00 +5°C° 0 mm 5 m/s 756 mmHg 90%
    06:00 +5°C° 0 mm 4 m/s 756 mmHg 91%
    07:00 +7°C° 0 mm 5 m/s 756 mmHg 85%
    08:00 +8°C° 0 mm 5 m/s 756 mmHg 79%
    09:00 +9°C° 0 mm 6 m/s 756 mmHg 72%
    10:00 +10°C° 0,1 mm 6 m/s 756 mmHg 68%
    11:00 +11°C° 0,1 mm 6 m/s 756 mmHg 65%
    12:00 +13°C° 0,1 mm 5 m/s 756 mmHg 61%
    13:00 +12°C° 0,1 mm 5 m/s 756 mmHg 62%
    14:00 +12°C° 0,1 mm 5 m/s 755 mmHg 64%
    15:00 +11°C° 0,1 mm 4 m/s 755 mmHg 66%
    16:00 +11°C° 0,4 mm 3 m/s 755 mmHg 72%
    17:00 +10°C° 0,4 mm 2 m/s 754 mmHg 77%
    18:00 +10°C° 0,4 mm 1 m/s 754 mmHg 83%
    19:00 +10°C° 0,2 mm 1 m/s 754 mmHg 86%
    20:00 +9°C° 0,2 mm 1 m/s 753 mmHg 89%
    21:00 +8°C° 0,2 mm 1 m/s 753 mmHg 92%
    22:00 +8°C° 0 mm 1 m/s 753 mmHg 93%
    23:00 +6°C° 0 mm 2 m/s 753 mmHg 94%

    25 Aprilie, Miercuri

    Timp Temperatura Precipitaţii Vânt Presiune Umiditate
    00:00 +6°C° 0 mm 2 m/s 753 mmHg 95%
    01:00 +6°C° 0 mm 2 m/s 753 mmHg 96%
    02:00 +6°C° 0 mm 2 m/s 752 mmHg 96%
    03:00 +6°C° 0 mm 2 m/s 752 mmHg 96%
    04:00 +5°C° 0 mm 3 m/s 752 mmHg 96%
    05:00 +5°C° 0 mm 3 m/s 752 mmHg 95%
    06:00 +7°C° 0 mm 3 m/s 752 mmHg 94%
    07:00 +6°C° 0,2 mm 4 m/s 752 mmHg 91%
    08:00 +7°C° 0,2 mm 5 m/s 752 mmHg 87%
    09:00 +8°C° 0,2 mm 5 m/s 752 mmHg 83%
    10:00 +8°C° 0,4 mm 6 m/s 751 mmHg 79%
    11:00 +9°C° 0,4 mm 6 m/s 751 mmHg 74%
    12:00 +9°C° 0,4 mm 7 m/s 751 mmHg 69%
    13:00 +10°C° 0,2 mm 7 m/s 751 mmHg 67%
    14:00 +10°C° 0,2 mm 7 m/s 751 mmHg 65%
    15:00 +10°C° 0,2 mm 7 m/s 751 mmHg 64%
    16:00 +9°C° 0,1 mm 6 m/s 751 mmHg 66%
    17:00 +9°C° 0,1 mm 6 m/s 750 mmHg 68%
    18:00 +8°C° 0,1 mm 5 m/s 750 mmHg 70%
    19:00 +7°C° 0 mm 5 m/s 751 mmHg 75%
    20:00 +6°C° 0 mm 4 m/s 751 mmHg 81%
    21:00 +4°C° 0 mm 4 m/s 751 mmHg 86%
    22:00 +4°C° 0 mm 4 m/s 751 mmHg 87%
    23:00 +4°C° 0 mm 4 m/s 751 mmHg 89%

    26 Aprilie, Joi

    Timp Temperatura Precipitaţii Vânt Presiune Umiditate
    00:00 +4°C° 0 mm 4 m/s 751 mmHg 91%
    01:00 +4°C° 0 mm 4 m/s 751 mmHg 91%
    02:00 +4°C° 0 mm 4 m/s 751 mmHg 91%
    03:00 +3°C° 0 mm 5 m/s 751 mmHg 91%
    04:00 +3°C° 0 mm 5 m/s 751 mmHg 90%
    05:00 +3°C° 0 mm 5 m/s 751 mmHg 90%
    06:00 +5°C° 0 mm 5 m/s 751 mmHg 89%
    07:00 +5°C° 0 mm 6 m/s 752 mmHg 82%
    08:00 +6°C° 0 mm 7 m/s 752 mmHg 74%
    09:00 +9°C° 0 mm 7 m/s 753 mmHg 67%
    10:00 +9°C° 0,1 mm 8 m/s 753 mmHg 64%
    11:00 +10°C° 0,1 mm 8 m/s 753 mmHg 62%
    12:00 +11°C° 0,1 mm 8 m/s 754 mmHg 59%
    13:00 +11°C° 0,4 mm 8 m/s 754 mmHg 60%
    14:00 +11°C° 0,4 mm 7 m/s 754 mmHg 61%
    15:00 +11°C° 0,4 mm 7 m/s 755 mmHg 62%
    16:00 +10°C° 0,4 mm 6 m/s 755 mmHg 65%
    17:00 +9°C° 0,4 mm 6 m/s 756 mmHg 68%
    18:00 +9°C° 0,4 mm 5 m/s 757 mmHg 72%
    19:00 +7°C° 0,1 mm 4 m/s 758 mmHg 76%
    20:00 +7°C° 0,1 mm 3 m/s 758 mmHg 81%
    21:00 +4°C° 0,1 mm 3 m/s 759 mmHg 85%
    22:00 +5°C° 0 mm 2 m/s 760 mmHg 87%
    23:00 +4°C° 0 mm 2 m/s 760 mmHg 90%
    Arată mai mult